Location: Buckland
(65.9785°N, 161.1281°W)
Time: 07:30:58
(UTC+00:00)

Transit 2A Rocket - Pass Details

Date: 28 November 2020
Orbit: 592 x 910 km, 66.7° (Epoch: 21 January)

Event Time Altitude Azimuth Distance (km) Brightness Sun altitude
Exits shadow 12:40:39 14° 79° (E) 2,138 7.7 -40.9°
Drops below altitude 10° 12:41:33 10° 71° (ENE) 2,360 8.0 -40.9°
Sets 12:44:25 0° 56° (NE) 3,231 9.1 -40.7°
